DW7322 Weather Reports


Display with metric or nautical units.
time (UTC)temp
F
wind
direction
speed
MPH
gust
MPH
rain 1hr
in
rain 24hr
in
rain mn
in
humidity
%
barometer
mb
20260506050138 46 312 0.0 0.0 0.00 0.00 0.00 71 1011.4
20260506044547 47 311 0.0 0.0 0.00 0.00 0.00 66 1011.2
20260506043007 47 311 0.0 0.0 0.00 0.00 0.00 66 1011.1
20260506041527 47 311 0.0 0.0 0.00 0.00 0.00 67 1011.5
20260506040100 48 311 0.0 0.0 0.00 0.00 0.00 67 1011.5
20260506034549 48 311 0.0 0.0 0.00 0.00 0.00 65 1011.2
20260506033005 48 311 0.0 0.0 0.00 0.00 0.00 72 1011.2
20260506031538 48 310 0.0 0.0 0.00 0.00 0.00 68 1010.9
20260506030009 48 311 0.0 0.0 0.00 0.00 0.00 67 1010.7
20260506024534 49 311 0.0 0.0 0.00 0.00 0.00 63 1010.4
20260506023053 49 311 0.0 0.0 0.00 0.00 0.00 60 1010.5
20260506021512 50 311 0.0 0.0 0.00 0.00 0.00 58 1010.4
20260506020002 50 311 0.0 0.0 0.00 0.00 0.00 55 1010.2
20260506014522 50 311 0.0 0.0 0.00 0.00 0.00 54 1009.8
20260506013047 51 311 0.0 0.0 0.00 0.00 0.00 57 1009.7
20260506011507 51 311 0.0 1.0 0.00 0.00 0.00 52 1009.3
20260506010124 52 310 0.0 1.0 0.00 0.00 0.00 52 1009.4
20260506004524 52 310 0.0 0.0 0.00 0.00 0.00 51 1009.1
20260506003044 53 309 0.0 1.0 0.00 0.00 0.00 47 1009.1
20260506001508 53 308 0.0 2.0 0.00 0.00 0.00 47 1008.8
20260506000124 53 311 0.0 3.0 0.00 0.00 0.00 48 1008.9
20260505234522 54 308 0.0 1.0 0.00 0.00 0.00 47 1008.9
20260505233043 54 305 0.0 3.0 0.00 0.00 0.00 45 1008.9
20260505231510 54 289 1.0 5.0 0.00 0.00 0.00 43 1009.1
20260505230003 54 314 0.0 3.0 0.00 0.00 0.00 43 1009.0
20260505224530 55 314 0.0 4.0 0.00 0.00 0.00 43 1009.2
20260505223052 56 290 1.0 4.0 0.00 0.00 0.00 41 1009.3
20260505221510 55 276 1.0 3.0 0.00 0.00 0.00 40 1009.1
20260505220041 55 307 1.0 5.0 0.00 0.00 0.00 42 1009.1
20260505214544 55 311 0.0 4.0 0.00 0.00 0.00 40 1009.3
20260505213052 55 310 0.0 6.0 0.00 0.00 0.00 42 1009.3
20260505211512 55 310 0.0 4.0 0.00 0.00 0.00 41 1009.2
20260505210126 55 286 0.0 3.0 0.00 0.00 0.00 40 1009.2
20260505204528 55 306 0.0 5.0 0.00 0.00 0.00 39 1009.3
20260505203044 55 301 0.0 3.0 0.00 0.00 0.00 42 1009.5
20260505201505 55 307 1.0 4.0 0.00 0.00 0.00 38 1009.6
20260505200116 55 276 1.0 3.0 0.00 0.00 0.00 40 1009.6
20260505194509 55 325 0.0 4.0 0.00 0.00 0.00 36 1009.6
20260505193037 55 306 1.0 6.0 0.00 0.00 0.00 35 1009.4
20260505191550 56 326 2.0 6.0 0.00 0.00 0.00 37 1009.6
20260505190112 56 291 0.0 6.0 0.00 0.00 0.00 40 1009.8
20260505184502 55 289 1.0 6.0 0.00 0.00 0.00 37 1009.7
20260505183032 55 271 0.0 4.0 0.00 0.00 0.00 36 1009.6
20260505181550 55 314 1.0 4.0 0.00 0.00 0.00 38 1009.7
20260505180104 56 321 0.0 4.0 0.00 0.00 0.00 39 1009.6
20260505174606 56 303 0.0 5.0 0.00 0.00 0.00 39 1009.5
20260505173017 56 354 0.0 4.0 0.00 0.00 0.00 39 1009.3
20260505171535 56 292 1.0 5.0 0.00 0.00 0.00 41 1009.2
20260505170057 56 246 1.0 6.0 0.00 0.00 0.00 43 1009.2
20260505164613 56 289 0.0 5.0 0.00 0.00 0.00 46 1009.1
20260505163016 56 307 2.0 6.0 0.00 0.00 0.00 42 1009.3
20260505161540 56 267 0.0 6.0 0.00 0.00 0.00 41 1009.2
20260505160110 55 329 0.0 7.0 0.00 0.00 0.00 44 1009.0
20260505153030 55 340 0.0 4.0 0.00 0.00 0.00 47 1008.8
20260505151548 54 356 0.0 4.0 0.00 0.00 0.00 46 1008.5
20260505130113 47 307 0.0 0.0 0.00 0.00 0.00 73 1009.6
20260505124604 46 307 0.0 0.0 0.00 0.00 0.00 79 1008.8
20260505124513 46 307 0.0 0.0 0.00 0.00 0.00 78 1008.8
20260505123024 46 307 0.0 0.0 0.00 0.00 0.00 79 1009.1
20260505121552 46 307 0.0 0.0 0.00 0.00 0.00 76 1009.1
20260505120124 46 307 0.0 0.0 0.00 0.00 0.00 75 1008.9
20260505114600 46 307 0.0 0.0 0.00 0.00 0.00 77 1009.4
20260505113007 46 312 0.0 0.0 0.00 0.00 0.00 75 1008.5
20260505111533 47 313 0.0 1.0 0.00 0.00 0.00 70 1007.9
20260505101520 49 319 0.0 2.0 0.00 0.00 0.00 68 1007.3
20260505100021 49 318 0.0 0.0 0.00 0.00 0.00 72 1006.1
20260505094537 49 318 0.0 1.0 0.00 0.00 0.00 69 1005.8
20260505093050 50 318 0.0 1.0 0.00 0.00 0.00 68 1006.4
20260505091506 51 318 0.0 1.0 0.00 0.00 0.00 65 1006.3
20260505090122 51 318 0.0 2.0 0.00 0.00 0.00 62 1006.1
20260505084510 52 326 0.0 4.0 0.00 0.00 0.00 60 1005.6
20260505083028 52 314 1.0 4.0 0.00 0.00 0.00 59 1005.1
20260505081550 53 289 0.0 2.0 0.00 0.00 0.00 60 1004.8
20260505080113 52 319 0.0 3.0 0.00 0.00 0.00 60 1003.9
20260505074600 52 260 0.0 1.0 0.00 0.00 0.00 61 1004.0
20260505073018 53 316 0.0 2.0 0.00 0.00 0.00 61 1003.6
20260505071549 53 316 0.0 2.0 0.00 0.00 0.00 59 1003.8
20260505070110 53 322 0.0 1.0 0.00 0.00 0.00 62 1003.6
20260505064548 53 316 0.0 1.0 0.00 0.00 0.00 61 1003.3
20260505063013 54 316 0.0 0.0 0.00 0.00 0.00 59 1002.9
20260505061518 55 316 0.0 0.0 0.00 0.00 0.00 55 1003.2
20260505060038 56 304 0.0 1.0 0.00 0.00 0.00 53 1003.0
20260505054547 56 304 0.0 0.0 0.00 0.00 0.00 54 1002.8